Regional Weather Roundup
Issued by NWS

Home | Current Version | Previous Version | Graphics & Text | Print | Product List | Glossary On
Versions: 1 2 3 4 5 6 7 8 9 10 11 12 13 14 15 16 17 18 19 20 21 22 23 24 25 26 27 28 29 30 31 32 33 34 35 36 37 38 39 40 41 42 43 44 45 46 47 48 49 50
000
ASUS45 KBOU 290207
RWRCO

WEATHER ROUNDUP FOR COLORADO
NATIONAL WEATHER SERVICE DENVER/BOULDER CO
700 PM MST FRI NOV 28 2014

NOTE: "FAIR" INDICATES FEW OR NO CLOUDS BELOW 12000 FEET WITH NO
SIGNIFICANT WEATHER AND/OR OBSTRUCTIONS TO VISIBILITY.

COZ001>005-013-030-031-290300-
...NORTHWEST COLORADO...

CITY           SKY/WX    TMP DP  RH WIND       PRES   REMARKS
CRAIG          CLEAR     45  17  32 W12G18    29.95F
HAYDEN         CLEAR     36  19  51 E9        29.97F
MEEKER         PTCLDY    45  18  34 W9        29.98F
MOUNT WERNER   NOT AVBL
STEAMBOAT SPGS CLEAR     29  23  77 CALM      29.99F
WALDEN         MOCLDY    37  12  35 S7        30.00F
$$

COZ006>008-011-290300-
...WEST CENTRAL VALLEYS...

CITY           SKY/WX    TMP DP  RH WIND       PRES   REMARKS
GRAND JUNCTION MOCLDY    34  23  64 E7        30.00F WCI  28
MONTROSE       MOCLDY    37  22  54 SE5       30.05S
EAGLE          CLEAR     36  25  64 E8        30.04F
RIFLE          PTCLDY    35  26  69 S3        30.02F
DELTA          MOCLDY    40  23  50 NE7       30.02F
NUCLA          MOCLDY    46  14  27 E3        30.07S
$$

COZ017>023-064>068-290300-
...SOUTHWEST COLORADO...

CITY           SKY/WX    TMP DP  RH WIND       PRES   REMARKS
DURANGO        PTCLDY    32  16  51 CALM      30.12S
CORTEZ         CLEAR     33  19  56 E9        30.08F WCI  25
PAGOSA SPRINGS PTCLDY    34  12  40 CALM      30.16F
TELLURIDE      PTCLDY    42   8  24 CALM      30.20F
WOLF CREEK PAS CLEAR     28   7  40 MISG      30.26F
$$

COZ009-010-012-014-032>034-037-058>063-290300-
...CENTRAL COLORADO...

CITY           SKY/WX    TMP DP  RH WIND       PRES   REMARKS
ASPEN          PTCLDY    33  18  53 S9        30.06F WCI  25
BUENA VISTA    PTCLDY    49   4  16 W10G32    30.04F
COPPER MTN     CLEAR     34   1  25 W15       30.20R WCI  24
BERTHOUD PASS  NOT AVBL
COTTONWOOD PAS PTCLDY    45  -6  12 W25G39    30.08S
GUNNISON       PTCLDY    25  16  68 CALM      30.16S
KREMMLING      CLEAR     41  14  33 N5        30.01F
LEADVILLE      PTCLDY    34   6  31 VRB6      30.11F WCI  29
MONARCH PASS   PTCLDY    30   5  34 W33G40    30.31F WCI  14
SALIDA         PTCLDY    50   3  14 S3        30.10F
SUNLIGHT       PTCLDY    32  16  51 CALM      30.15F
WILKERSON PASS PTCLDY    34   1  25 W10G18    30.14F WCI  26
$$

COZ069>075-290300-
...SAN LUIS VALLEY/SANGRE DE CRISTO MOUNTAINS...

CITY           SKY/WX    TMP DP  RH WIND       PRES   REMARKS
ALAMOSA        PTCLDY    38   7  27 W10       30.09R
LA VETA PASS   PTCLDY    37   9  30 S12G31    30.10F
SAGUACHE       PTCLDY    39  12  33 N10       30.09S
$$

COZ035-036-038>040-290300-
...NORTHERN COLORADO FRONT RANGE...

CITY           SKY/WX    TMP DP  RH WIND       PRES   REMARKS
DENVER INTL AP CLOUDY    59   9  13 W6        29.82S
DMNS CITY PARK   N/A     63   6  10 NW12G18   29.80S
AURORA         MOCLDY    60   8  13 SW3       29.84S
FRONT RANGE AP NOT AVBL
ERIE MUNI ARPT CLOUDY    60   5  11 SW5       29.79F
BOULDER MUN AP CLOUDY    61  12  15 E6        29.78F
CENTENNIAL     CLOUDY    51  11  20 SW9       29.84F
BROOMFIELD     MOCLDY    57   9  14 CALM      29.83S
FORT COLLINS   CLOUDY    61  14  16 W24G32    29.79F
LONGMONT       CLOUDY    65  10  11 NW15G25   29.79F
$$

COZ041-046-047-076>085-087-088-290300-
...PIKES PEAK/PALMER DIVIDE AND SOUTHERN FOOTHILLS...

CITY           SKY/WX    TMP DP  RH WIND       PRES   REMARKS
COLO. SPRINGS  CLOUDY    61   2   9 NW7       29.88F
A. F. ACADEMY  CLOUDY    56   1  10 N13G22    29.90F
ELLICOTT       NOT AVBL
FALCON         NOT AVBL
FORT CARSON    CLOUDY    56   7  14 SW15      29.85F
LIMON          CLOUDY    34  17  50 NW6       29.83F WCI  29
MONUMENT HILL  CLOUDY    45   9  23 SW13      29.91S
TRINIDAD       CLOUDY    44  25  47 W12       29.92F
$$

COZ042>045-048>051-090-091-290300-
...NORTHEAST COLORADO...

CITY           SKY/WX    TMP DP  RH WIND       PRES   REMARKS
GREELEY ARPT   CLOUDY    45  23  42 E3        29.80F
AKRON          CLOUDY    57  12  17 S7        29.78F
BURLINGTON     CLOUDY    49  13  23 SW6       29.78F
WRAY           CLOUDY    50  20  30 W6        29.75F
STERLING       CLOUDY    37  32  81 CALM      29.76F
HOLYOKE        CLOUDY    41  28  60 W8        29.75S
FORT MORGAN    CLOUDY    52  14  22 W3        29.78F
$$

COZ086-089-092>099-290300-
...SOUTHEAST COLORADO...

CITY           SKY/WX    TMP DP  RH WIND       PRES   REMARKS
PUEBLO         MOCLDY    55  11  17 S6        29.83S
LA JUNTA       CLOUDY    56  16  20 SW17      29.80F
LAMAR          CLOUDY    44  21  40 SW7       29.77S
SPRINGFIELD      N/A     52  13  21 W8        29.82F
$$



USA.gov is the U.S. government's official web portal to all federal, state and local government web resources and services.